Location: Saint André
(43.5594°N, 1.3519°W)
Time: 04:34:52
(UTC+00:00)

Cosmos 1500 Rocket - Pass Details

Date: 22 March 2025
Orbit: 596 x 625 km, 82.5° (Epoch: 22 April)

Event Time Altitude Azimuth Distance (km) Brightness Sun altitude
Rises 19:32:02 0° 173° (S) 2,893 6.8 -13.6°
Reaches altitude 10° 19:34:18 10° 168° (SSE) 1,993 5.9 -14.0°
Maximum altitude 19:38:34 50° 93° (E) 804 3.7 -14.8°
Drops below altitude 10° 19:42:52 10° 19° (NNE) 2,008 6.2 -15.5°
Sets 19:45:09 0° 14° (NNE) 2,918 7.1 -15.9°
